map of KLLQ home
Great Circle Mapper logo
KLLQ - Airport
Location
City:  Monticello, Arkansas, United States
Name:Monticello Municipal/Ellis Field
ICAO:KLLQ
FAA:LLQ

Details
Type:Airport (Airfield)
Use:Public/Civil
Latitude:3338'19"N (33.638556)
Longitude:9145'04"W (-91.750999)
Datum:WGS 1984
Elevation:267 ft (81 m)
Variation:0.25E (WMM2015 magnetic declination)
-0.10 annual change
Runways:1
Longest:5020 × 75 ft (1530 × 23 m), paved

Time
Time Zone:UTC-6 (DST-5)
Local Time:

Weather
METAR:KLLQ 050453Z AUTO 00000KT 8SM CLR 21/21 A3002 RMK AO2 SLP162 T02110211
TAF:KLLQ 050536Z 0506/0606 16003KT P6SM SCT050 SCT250
FM050800 00000KT 6SM BR SCT015
TEMPO 0508/0512 2SM BR BKN015
FM051300 21005KT P6SM VCSH SCT015 BKN050
FM051900 21006KT P6SM VCTS SCT035CB BKN100 OVC250

Related Locations
Nearby:
Farthest:MGV: 10903 mi / 17547 km
Margaret River, WA, AU

Find:

   beyond  
but within

Other Information
Maps:
NOTAMs:
Links:
Sources:

  
flag of United States
flag of Arkansas
  

Sectional Chart

Flight Planning
at skyvector.com

Satellite Image

Google Maps Satellite view

 

Copyright © 2004-2015 Karl L. Swartz. All rights reserved.
The Great Circle Mapper name and logo are trademarks of the Great Circle Mapper.
All other trademarks mentioned herein belong to their respective owners.
Please see credits for attibutions and further copyright information.

  Follow gcmap on Facebook Follow gcmap on Twitter Follow gcmap on Google+

hCard Microformat

Geo Microformat